星链-4589 (STARLINK-4589 )

导读

STARLINK-4589是美国SpaceX公司星链(Starlink)星座的成员卫星,于2022年9月5日发射升空。作为星链互联网卫星星座的一部分,它承担着为全球提供高速低延迟宽带互联网服务的任务,尤其重点覆盖偏远地区与网络基础设施薄弱区域,助力实现全球卫星互联网组网。

基本信息
目录编号:
53746
目录名称:
STARLINK-4589
国际标识:
2022-107AY
轨道中心:
EARTH
卫星名称:
星链-4589
卫星全名:
星链-4589 (STARLINK-4589 )
卫星状态:
在轨 (已飞行1381 天)
发射日期:
2022-09-05 UTC
国别 :
美国 (US)
星等 :
--
轨道信息
数据来源 国际轨道数据 AOE轨道数据
星历时间 2026-06-17T12:30:53+0800
4小时前
查看轨道信息
2026-06-16T01:00:00+0800
1天前
查看轨道信息
半长轴 6917.015km 6917.806km
偏心率 0.0001253 0.0001407
轨道倾角 53.160° 53.157°
近地点辐角 39.894° 85.247°
升交点赤经 177.404° 184.061°
平近点角 320.215° 150.896°
近地点 538.011km 538.695km
远地点 539.745km 540.643km
周期 95.420分钟 95.436分钟
每日圈数 15.091233 15.088645
详细信息
固有亮度:
5
最大亮度:
2.5
卫星平台:
Starlink v1.5
覆盖范围:
全球
运营商:
太空探索技术公司
运营商所在国:
美国
制造商(研发单位):
太空探索技术公司
制造商所在国:
美国
使用方式:
暂无
卫星简介
星链(Starlink)计划是由太空探索技术公司(SpaceX)提出的一个巨型低轨卫星互联网星座项目,计划在2019年至2024年间在太空搭建由约1.2万颗卫星组成的“星链”网络,其中1584颗将部署在地球上空550千米处的近地轨道,并从2020年开始工作。该卫星仍在工作。
2D轨道图
3D轨道图
轨道高度分析图
轨道倾角分析图
轨道综合分析图
查看轨道综合分析图